Date,TemperatureHighF,TemperatureAvgF,TemperatureLowF,DewpointHighF,DewpointAvgF,DewpointLowF,HumidityHigh,HumidityAvg,HumidityLow,PressureMaxIn,PressureMinIn,WindSpeedMaxMPH,WindSpeedAvgMPH,GustSpeedMaxMPH,PrecipitationSumIn
2013-12-1,47.8,38.7,32.2,34.9,31.0,27.9,88,74,58,30.14,29.97,13,4,13,0.00
2013-12-2,39.0,36.1,32.7,35.6,33.4,31.8,98,90,84,29.98,29.88,7,1,7,0.00
2013-12-3,44.1,39.1,35.2,42.8,36.0,32.4,95,89,78,29.91,29.82,9,2,9,0.07
2013-12-4,62.1,52.7,38.7,54.3,47.8,37.4,99,84,74,29.92,29.70,17,4,17,0.00
2013-12-5,91.0,48.5,30.9,57.2,41.9,27.1,96,78,65,30.17,29.68,21,10,21,0.00
2013-12-6,33.3,30.7,26.8,29.8,24.9,19.6,96,79,70,30.37,30.12,11,3,11,0.00
2013-12-7,60.3,24.1,20.7,19.9,15.3,13.1,75,69,59,30.59,30.06,15,4,15,0.00
2013-12-8,29.5,25.0,17.2,27.5,18.3,12.7,96,76,63,30.58,30.00,16,4,16,0.00
2013-12-9,33.3,29.2,22.5,33.1,25.3,14.0,99,86,69,30.16,29.91,24,10,24,0.00
2013-12-10,27.5,23.0,20.5,14.4,12.8,10.2,72,65,48,30.24,30.01,25,10,25,0.00
2013-12-11,58.5,20.2,16.0,21.9,14.3,7.3,92,78,67,30.45,30.23,18,8,18,0.00
2013-12-12,18.7,13.1,6.8,7.9,4.9,2.1,84,70,51,30.47,30.22,22,9,22,0.00
2013-12-13,33.8,24.8,16.3,24.6,15.4,5.9,80,67,59,30.26,30.18,18,6,18,0.00
2013-12-14,32.5,29.5,25.7,32.4,28.8,23.4,99,97,78,30.24,29.72,11,2,11,0.00
2013-12-15,27.7,20.7,13.6,25.9,17.4,9.1,99,89,79,30.08,29.77,16,5,19,0.00
2013-12-16,35.2,16.4,8.2,19.4,11.1,5.2,92,80,65,30.25,29.99,12,3,12,0.00
2013-12-17,26.6,23.9,18.3,25.5,21.8,16.7,99,92,85,30.05,29.91,20,8,20,0.00
2013-12-18,66.9,25.5,21.0,23.0,20.1,15.8,92,80,63,30.17,29.95,22,10,22,0.00
2013-12-19,44.6,40.4,32.7,37.2,31.1,21.0,76,69,57,30.01,29.91,27,9,27,0.00
2013-12-20,57.6,48.1,42.4,55.9,45.0,37.4,99,89,76,29.92,29.75,21,10,21,0.00
2013-12-21,59.0,42.3,33.4,57.6,41.9,33.3,99,98,95,29.86,29.56,23,5,23,0.00
2013-12-22,48.2,39.0,34.0,48.0,38.6,33.8,99,98,89,29.99,29.42,25,6,25,0.00
2013-12-23,37.4,34.3,25.3,36.3,31.5,17.4,96,89,70,30.31,29.99,15,6,15,0.00
2013-12-24,67.6,19.2,14.4,19.9,12.3,8.4,82,74,63,30.54,30.01,16,7,16,0.00
2013-12-25,27.1,22.2,16.2,24.4,15.4,11.3,90,75,58,30.51,30.15,17,7,17,0.00
2013-12-26,31.8,28.5,25.2,28.9,23.6,18.5,96,82,68,30.32,30.07,20,8,20,0.00
2013-12-27,74.5,37.0,28.4,32.9,28.9,21.7,80,72,64,30.34,30.04,21,8,21,0.00
2013-12-28,52.2,43.9,39.0,37.9,33.9,31.5,76,68,55,30.16,29.95,21,11,21,0.00
2013-12-29,46.6,40.0,27.7,35.8,32.0,24.1,99,73,61,29.99,29.70,16,7,16,0.00
2013-12-30,27.5,22.1,19.6,24.1,14.8,10.2,91,73,60,30.26,29.98,17,5,17,0.00
2013-12-31,22.6,19.1,16.3,18.1,13.4,9.5,92,78,68,30.34,30.07,21,9,21,0.00